Location: Earls Croome
(52.0667°N, 2.2000°W)
Time: 12:44:13
(UTC+00:00)

COSMOS 2455 - Pass Details

Date: 29 February 2020
Orbit: 901 x 909 km, 67.2° (Epoch: 05 April)

Event Time Altitude Azimuth Distance (km) Brightness Sun altitude
Exits shadow 00:26:00 13° 29° (NNE) 2,400 5.5 -45.8°
Drops below altitude 10° 00:26:50 10° 35° (NE) 2,602 5.7 -45.8°
Sets 00:30:02 0° 51° (NE) 3,545 6.3 -45.8°
